Location: Azul
(36.7830°S, 59.8500°W)
Time: 23:02:31
(UTC-03:00)

TIGRISAT - Pass Details

Date: 25 October 2021
Orbit: 603 x 689 km, 97.7° (Epoch: 27 November)

Event Time Altitude Azimuth Distance (km) Brightness Sun altitude
Rises 20:36:54 0° 322° (NW) 2,852 ? -14.0°
Reaches altitude 10° 20:41:21 10° 277° (W) 1,970 ? -14.8°
Maximum altitude 20:41:51 10° 270° (W) 1,962 ? -14.9°
Drops below altitude 10° 20:42:20 10° 264° (W) 1,976 ? -15.0°
Sets 20:46:53 0° 219° (SW) 2,912 ? -15.8°
